Time,TemperatureF,DewpointF,PressureIn,WindDirection,WindDirectionDegrees,WindSpeedMPH,WindSpeedGustMPH,Humidity,HourlyPrecipIn,Conditions,Clouds,dailyrainin,SoftwareType,DateUTC
2013-03-03 00:08:00,74.9,68.0,29.87,SE,132,2.0,8.0,78,0.00,,,0.00,weatherlink.com 1.10,2013-03-03 04:08:00,
2013-03-03 00:22:00,74.9,68.0,29.86,ESE,123,2.0,9.0,79,0.00,,,0.00,weatherlink.com 1.10,2013-03-03 04:22:00,
2013-03-03 00:37:00,74.8,68.0,29.86,SSE,168,2.0,10.0,79,0.00,,,0.00,weatherlink.com 1.10,2013-03-03 04:37:00,
2013-03-03 00:52:00,74.9,68.0,29.85,SSW,211,2.0,6.0,79,0.00,,,0.00,weatherlink.com 1.10,2013-03-03 04:52:00,
2013-03-03 01:07:00,74.9,68.0,29.85,WSW,238,0.0,10.0,80,0.00,,,0.00,weatherlink.com 1.10,2013-03-03 05:07:00,
2013-03-03 01:22:00,74.9,68.0,29.85,South,176,2.0,7.0,80,0.00,,,0.00,weatherlink.com 1.10,2013-03-03 05:22:00,
2013-03-03 01:37:00,74.8,68.0,29.84,South,169,1.0,7.0,80,0.00,,,0.00,weatherlink.com 1.10,2013-03-03 05:37:00,
2013-03-03 01:53:00,74.4,68.0,29.84,SSE,155,0.0,2.0,80,0.00,,,0.00,weatherlink.com 1.10,2013-03-03 05:53:00,
2013-03-03 02:08:00,73.7,68.0,29.84,NW,320,0.0,1.0,81,0.00,,,0.00,weatherlink.com 1.10,2013-03-03 06:08:00,
2013-03-03 02:22:00,73.3,68.0,29.84,NW,312,0.0,1.0,83,0.00,,,0.00,weatherlink.com 1.10,2013-03-03 06:22:00,
2013-03-03 02:37:00,73.2,68.0,29.84,WSW,257,0.0,1.0,83,0.00,,,0.00,weatherlink.com 1.10,2013-03-03 06:37:00,
2013-03-03 02:53:00,72.5,68.0,29.83,WSW,238,0.0,1.0,85,0.00,,,0.00,weatherlink.com 1.10,2013-03-03 06:53:00,
2013-03-03 03:08:00,72.1,68.0,29.83,WNW,287,0.0,2.0,86,0.00,,,0.00,weatherlink.com 1.10,2013-03-03 07:08:00,
2013-03-03 03:23:00,71.7,68.0,29.83,WSW,254,2.0,3.0,87,0.00,,,0.00,weatherlink.com 1.10,2013-03-03 07:23:00,
2013-03-03 03:37:00,71.2,68.0,29.83,WNW,285,0.0,2.0,88,0.00,,,0.00,weatherlink.com 1.10,2013-03-03 07:37:00,
2013-03-03 03:53:00,70.6,67.0,29.83,West,269,1.0,3.0,89,0.00,,,0.00,weatherlink.com 1.10,2013-03-03 07:53:00,
2013-03-03 04:08:00,70.3,67.0,29.84,WSW,256,0.0,2.0,89,0.00,,,0.00,weatherlink.com 1.10,2013-03-03 08:08:00,
2013-03-03 04:22:00,70.1,67.0,29.84,West,278,0.0,1.0,90,0.00,,,0.00,weatherlink.com 1.10,2013-03-03 08:22:00,
2013-03-03 04:38:00,69.7,67.0,29.84,West,278,0.0,0.0,90,0.00,,,0.00,weatherlink.com 1.10,2013-03-03 08:38:00,
2013-03-03 04:53:00,69.2,67.0,29.84,West,278,0.0,0.0,91,0.00,,,0.00,weatherlink.com 1.10,2013-03-03 08:53:00,
2013-03-03 05:08:00,68.8,66.0,29.85,SW,229,0.0,1.0,91,0.00,,,0.00,weatherlink.com 1.10,2013-03-03 09:08:00,
2013-03-03 05:23:00,68.6,66.0,29.85,SW,229,0.0,0.0,91,0.00,,,0.00,weatherlink.com 1.10,2013-03-03 09:23:00,
2013-03-03 05:38:00,68.6,66.0,29.85,SW,229,0.0,0.0,91,0.00,,,0.00,weatherlink.com 1.10,2013-03-03 09:38:00,
2013-03-03 05:53:00,68.3,66.0,29.86,SW,229,0.0,1.0,92,0.00,,,0.00,weatherlink.com 1.10,2013-03-03 09:53:00,
2013-03-03 06:07:00,68.0,66.0,29.86,SW,229,0.0,0.0,92,0.00,,,0.00,weatherlink.com 1.10,2013-03-03 10:07:00,
2013-03-03 06:23:00,68.0,66.0,29.87,SW,229,0.0,1.0,92,0.00,,,0.00,weatherlink.com 1.10,2013-03-03 10:23:00,
2013-03-03 06:38:00,68.0,66.0,29.88,SW,229,0.0,1.0,92,0.00,,,0.00,weatherlink.com 1.10,2013-03-03 10:38:00,
2013-03-03 06:53:00,67.9,66.0,29.88,SW,229,0.0,1.0,93,0.00,,,0.00,weatherlink.com 1.10,2013-03-03 10:53:00,
2013-03-03 07:07:00,68.4,66.0,29.89,South,188,0.0,1.0,93,0.00,,,0.00,weatherlink.com 1.10,2013-03-03 11:07:00,
2013-03-03 07:23:00,69.9,68.0,29.89,South,188,0.0,1.0,92,0.00,,,0.00,weatherlink.com 1.10,2013-03-03 11:23:00,
2013-03-03 07:38:00,72.2,69.0,29.89,South,188,0.0,1.0,88,0.00,,,0.00,weatherlink.com 1.10,2013-03-03 11:38:00,
2013-03-03 07:53:00,74.3,69.0,29.90,SSE,150,0.0,1.0,83,0.00,,,0.00,weatherlink.com 1.10,2013-03-03 11:53:00,
2013-03-03 08:08:00,75.3,69.0,29.91,SSE,150,1.0,2.0,81,0.00,,,0.00,weatherlink.com 1.10,2013-03-03 12:08:00,
2013-03-03 08:23:00,76.2,70.0,29.91,SSE,149,0.0,1.0,81,0.00,,,0.00,weatherlink.com 1.10,2013-03-03 12:23:00,
2013-03-03 08:38:00,79.4,72.0,29.91,SE,135,1.0,4.0,78,0.00,,,0.00,weatherlink.com 1.10,2013-03-03 12:38:00,
2013-03-03 08:54:00,82.0,72.0,29.92,East,100,1.0,3.0,71,0.00,,,0.00,weatherlink.com 1.10,2013-03-03 12:54:00,
2013-03-03 09:08:00,83.8,71.0,29.92,SSE,150,2.0,8.0,66,0.00,,,0.00,weatherlink.com 1.10,2013-03-03 13:08:00,
2013-03-03 09:23:00,84.3,72.0,29.93,SSE,153,2.0,6.0,66,0.00,,,0.00,weatherlink.com 1.10,2013-03-03 13:23:00,
2013-03-03 09:38:00,83.2,71.0,29.93,ESE,121,1.0,6.0,67,0.00,,,0.00,weatherlink.com 1.10,2013-03-03 13:38:00,
2013-03-03 09:54:00,83.5,71.0,29.93,South,169,2.0,5.0,67,0.00,,,0.00,weatherlink.com 1.10,2013-03-03 13:54:00,
2013-03-03 10:09:00,85.1,72.0,29.93,ESE,105,9.0,9.0,65,0.00,,,0.00,weatherlink.com 1.10,2013-03-03 14:09:00,
2013-03-03 10:23:00,85.0,70.0,29.93,ESE,120,2.0,7.0,62,0.00,,,0.00,weatherlink.com 1.10,2013-03-03 14:23:00,
2013-03-03 10:39:00,87.0,70.0,29.93,WSW,241,1.0,10.0,57,0.00,,,0.00,weatherlink.com 1.10,2013-03-03 14:39:00,
2013-03-03 10:54:00,87.5,70.0,29.93,SE,138,6.0,9.0,57,0.00,,,0.00,weatherlink.com 1.10,2013-03-03 14:54:00,
2013-03-03 11:08:00,86.9,70.0,29.93,WSW,245,1.0,6.0,58,0.00,,,0.00,weatherlink.com 1.10,2013-03-03 15:08:00,
2013-03-03 11:24:00,86.9,71.0,29.93,SE,139,2.0,8.0,60,0.00,,,0.00,weatherlink.com 1.10,2013-03-03 15:24:00,
2013-03-03 11:38:00,86.8,72.0,29.92,SW,214,2.0,8.0,62,0.00,,,0.00,weatherlink.com 1.10,2013-03-03 15:38:00,
2013-03-03 11:54:00,86.6,71.0,29.92,SSW,201,3.0,8.0,60,0.00,,,0.00,weatherlink.com 1.10,2013-03-03 15:54:00,
2013-03-03 12:08:00,86.5,71.0,29.91,SSE,167,2.0,6.0,61,0.00,,,0.00,weatherlink.com 1.10,2013-03-03 16:08:00,
2013-03-03 12:24:00,87.3,72.0,29.90,SSE,164,2.0,7.0,60,0.00,,,0.00,weatherlink.com 1.10,2013-03-03 16:24:00,
2013-03-03 12:39:00,89.6,72.0,29.89,SSW,211,2.0,8.0,56,0.00,,,0.00,weatherlink.com 1.10,2013-03-03 16:39:00,
2013-03-03 12:54:00,90.0,73.0,29.89,SE,124,2.0,11.0,57,0.00,,,0.00,weatherlink.com 1.10,2013-03-03 16:54:00,
2013-03-03 13:09:00,89.4,72.0,29.88,SSE,147,0.0,12.0,57,0.00,,,0.00,weatherlink.com 1.10,2013-03-03 17:09:00,
2013-03-03 13:24:00,89.5,72.0,29.88,SSE,147,2.0,9.0,57,0.00,,,0.00,weatherlink.com 1.10,2013-03-03 17:24:00,
2013-03-03 13:39:00,91.1,72.0,29.87,SSE,148,4.0,11.0,54,0.00,,,0.00,weatherlink.com 1.10,2013-03-03 17:39:00,
2013-03-03 13:54:00,91.7,72.0,29.86,SW,235,2.0,6.0,52,0.00,,,0.00,weatherlink.com 1.10,2013-03-03 17:54:00,
2013-03-03 14:10:00,92.4,72.0,29.86,SSE,158,5.0,9.0,51,0.00,,,0.00,weatherlink.com 1.10,2013-03-03 18:10:00,
2013-03-03 14:24:00,92.9,70.0,29.85,SW,221,3.0,9.0,48,0.00,,,0.00,weatherlink.com 1.10,2013-03-03 18:24:00,
2013-03-03 14:39:00,93.1,71.0,29.84,WNW,291,3.0,7.0,49,0.00,,,0.00,weatherlink.com 1.10,2013-03-03 18:39:00,
2013-03-03 14:54:00,92.8,70.0,29.84,WNW,294,2.0,9.0,48,0.00,,,0.00,weatherlink.com 1.10,2013-03-03 18:54:00,
2013-03-03 15:09:00,91.6,72.0,29.84,SE,141,2.0,9.0,52,0.00,,,0.00,weatherlink.com 1.10,2013-03-03 19:09:00,
2013-03-03 15:24:00,92.7,72.0,29.83,NE,40,2.0,7.0,51,0.00,,,0.00,weatherlink.com 1.10,2013-03-03 19:24:00,
2013-03-03 15:39:00,92.0,71.0,29.83,SSW,210,1.0,11.0,50,0.00,,,0.00,weatherlink.com 1.10,2013-03-03 19:39:00,
2013-03-03 15:54:00,92.1,70.0,29.83,SSE,150,2.0,10.0,49,0.00,,,0.00,weatherlink.com 1.10,2013-03-03 19:54:00,
2013-03-03 16:09:00,91.1,69.0,29.83,SW,226,5.0,12.0,48,0.00,,,0.00,weatherlink.com 1.10,2013-03-03 20:09:00,
2013-03-03 16:24:00,91.5,69.0,29.83,South,171,1.0,6.0,48,0.00,,,0.00,weatherlink.com 1.10,2013-03-03 20:24:00,
2013-03-03 16:39:00,90.9,69.0,29.83,SSE,163,1.0,8.0,48,0.00,,,0.00,weatherlink.com 1.10,2013-03-03 20:39:00,
2013-03-03 16:54:00,91.0,70.0,29.84,SSE,165,1.0,4.0,50,0.00,,,0.00,weatherlink.com 1.10,2013-03-03 20:54:00,
2013-03-03 17:09:00,87.8,72.0,29.84,SSE,167,2.0,10.0,59,0.00,,,0.00,weatherlink.com 1.10,2013-03-03 21:09:00,
2013-03-03 17:24:00,85.9,71.0,29.85,SSW,212,4.0,9.0,62,0.00,,,0.00,weatherlink.com 1.10,2013-03-03 21:24:00,
2013-03-03 17:39:00,85.1,72.0,29.86,ESE,105,3.0,6.0,66,0.00,,,0.00,weatherlink.com 1.10,2013-03-03 21:39:00,
2013-03-03 17:54:00,84.2,72.0,29.86,WSW,252,3.0,4.0,67,0.00,,,0.00,weatherlink.com 1.10,2013-03-03 21:54:00,
2013-03-03 18:09:00,83.3,74.0,29.87,NNW,330,0.0,8.0,73,0.00,,,0.00,weatherlink.com 1.10,2013-03-03 22:09:00,
2013-03-03 18:24:00,82.5,74.0,29.88,North,8,1.0,3.0,75,0.00,,,0.00,weatherlink.com 1.10,2013-03-03 22:24:00,
2013-03-03 18:39:00,81.7,73.0,29.88,NNE,15,0.0,3.0,76,0.00,,,0.00,weatherlink.com 1.10,2013-03-03 22:39:00,
2013-03-03 18:54:00,81.2,73.0,29.89,NNW,327,0.0,2.0,77,0.00,,,0.00,weatherlink.com 1.10,2013-03-03 22:54:00,
2013-03-03 19:09:00,81.2,72.0,29.89,WNW,285,1.0,3.0,74,0.00,,,0.00,weatherlink.com 1.10,2013-03-03 23:09:00,
2013-03-03 19:24:00,81.4,72.0,29.89,WNW,291,0.0,3.0,74,0.00,,,0.00,weatherlink.com 1.10,2013-03-03 23:24:00,
2013-03-03 19:39:00,81.3,72.0,29.90,East,98,1.0,2.0,74,0.00,,,0.00,weatherlink.com 1.10,2013-03-03 23:39:00,
2013-03-03 19:54:00,80.9,72.0,29.90,SW,232,0.0,2.0,75,0.00,,,0.00,weatherlink.com 1.10,2013-03-03 23:54:00,
2013-03-03 20:09:00,80.5,72.0,29.90,SE,139,0.0,2.0,76,0.00,,,0.00,weatherlink.com 1.10,2013-03-04 00:09:00,
2013-03-03 20:24:00,79.9,72.0,29.91,SSE,150,1.0,1.0,77,0.00,,,0.00,weatherlink.com 1.10,2013-03-04 00:24:00,
2013-03-03 20:40:00,79.6,72.0,29.91,SSE,150,0.0,1.0,78,0.00,,,0.00,weatherlink.com 1.10,2013-03-04 00:40:00,
2013-03-03 20:55:00,79.4,73.0,29.92,WNW,290,0.0,2.0,80,0.00,,,0.00,weatherlink.com 1.10,2013-03-04 00:55:00,
2013-03-03 21:09:00,79.1,72.0,29.92,SW,236,1.0,2.0,79,0.00,,,0.00,weatherlink.com 1.10,2013-03-04 01:09:00,
2013-03-03 21:25:00,78.8,72.0,29.92,WSW,251,1.0,2.0,80,0.00,,,0.00,weatherlink.com 1.10,2013-03-04 01:25:00,
2013-03-03 21:40:00,78.7,72.0,29.93,WSW,252,0.0,1.0,80,0.00,,,0.00,weatherlink.com 1.10,2013-03-04 01:40:00,
2013-03-03 21:55:00,78.6,72.0,29.93,WSW,243,0.0,1.0,80,0.00,,,0.00,weatherlink.com 1.10,2013-03-04 01:55:00,
2013-03-03 22:10:00,78.5,72.0,29.94,WSW,258,1.0,2.0,80,0.00,,,0.00,weatherlink.com 1.10,2013-03-04 02:10:00,
2013-03-03 22:25:00,78.7,72.0,29.94,WSW,252,0.0,2.0,80,0.00,,,0.00,weatherlink.com 1.10,2013-03-04 02:25:00,
2013-03-03 22:40:00,78.9,72.0,29.94,WSW,250,0.0,1.0,78,0.00,,,0.00,weatherlink.com 1.10,2013-03-04 02:40:00,
2013-03-03 22:55:00,79.3,72.0,29.94,WSW,243,0.0,2.0,77,0.00,,,0.00,weatherlink.com 1.10,2013-03-04 02:55:00,
2013-03-03 23:10:00,79.4,72.0,29.94,SSE,162,0.0,1.0,79,0.00,,,0.00,weatherlink.com 1.10,2013-03-04 03:10:00,
2013-03-03 23:25:00,79.1,71.0,29.94,SSE,157,0.0,1.0,77,0.00,,,0.00,weatherlink.com 1.10,2013-03-04 03:25:00,
2013-03-03 23:40:00,79.1,72.0,29.94,SE,127,2.0,2.0,80,0.00,,,0.00,weatherlink.com 1.10,2013-03-04 03:40:00,
2013-03-03 23:55:00,78.6,73.0,29.94,SE,125,0.0,3.0,82,0.00,,,0.00,weatherlink.com 1.10,2013-03-04 03:55:00,